Tracking 33200 objects as of 17-Feb-2026
HD Live streaming from Space Station
objects crossing your sky now

NOAA 17 DEB

Track NOAA 17 DEB now!
10-day predictions


NORAD ID: 48765
Int'l Code: 2002-032DB
Perigee: 622.4 km
Apogee: 635.2 km
Inclination: 98.7 °
Period: 97.1 minutes
Semi major axis: 6999 km
RCS: Unknown
Launch date: June 24, 2002
Source: United States (US)
Launch site: AIR FORCE WESTERN TEST RANGE (AFWTR)

Note: This is SATELLITE DEBRIS
Your satellite tracking list
Your tracking list is empty




NASA's NSSDC Master Catalog

Two Line Element Set (TLE):
1 48765U 02032DA  26046.48962114  .00034239  00000-0  42555-2 0  9994
2 48765  98.6988  64.3147 0009187 334.2188  25.8564 14.82431018255586
Source of the keplerian elements: AFSPC